Regional Weather Roundup
Issued by NWS

Home | Current Version | Previous Version | Text Only | Print | Product List | Glossary On
Versions: 1 2 3 4 5 6 7 8 9 10 11 12 13 14 15 16 17 18 19 20 21 22 23 24 25 26 27 28
000
ASUS42 KKEY 271810
RWRKEY

FLORIDA REGIONAL WEATHER ROUNDUP FOR THE FLORIDA KEYS
NATIONAL WEATHER SERVICE KEY WEST FLORIDA
100 PM EST MON FEB 27 2017

...SOUTH FLORIDA AND THE KEYS...

CITY           SKY/WX    TMP DP  RH WIND       PRES   REMARKS
FORT MYERS       N/A     86  61  42 S14       30.18F
SW REGIONAL AP MOSUNNY   84  60  44 SE8       30.18F
NAPLES         MOSUNNY   85  63  47 SE12      30.17F
MIAMI          PTSUNNY   80  67  64 E13G23    30.21F
WEST KENDALL   PTSUNNY   81  67  62 SE15      30.21F
HOMESTEAD      MOSUNNY   80  73  78 E16       30.20F
MARATHON       SUNNY     84  72  67 E10G17    30.18F
BOCA CHICA NAS MOSUNNY   81  71  71 E15       30.17F
KEY WEST INTL  MOSUNNY   82  72  71 E13       30.18F

...INTERNATIONAL WEATHER...

CITY           SKY/WX    TMP DP  RH WIND       PRES   REMARKS
NASSAU BAHAMAS PTSUNNY   84  72  65 E18       30.24F
CANCUN MEXICO  CLOUDY    82  72  69 SE12      30.09F
COZUMEL MEXICO PTSUNNY   84  70  61 SE9       30.07S

ADJACENT COASTAL WATERS...

STATION/POSITION TIME  SKY/WX   TEMP    WIND        PRES    WAVE
                                AIR SEA DIR/SP/G            HT/PER
                 (UTC)          (F)     (DEG/KT/KT) (MB)    (FT/S)
PULASKI SHOAL LI 1800            76     120/ 11/ 12 1021.5F
SAND KEY         1750            78     130/ 17/ 20 1022.3F
LONG KEY         1700            77 76  100/ 15/ 16 1023.1F
MOLASSES REEF    1800            77 76  120/ 16/ 18 1022.5F
FOWEY ROCKS      1800            76 76  100/ 17/ 19 1023.5F
Buoy 42097       1800                                 N/A     4/ 5

$$




USA.gov is the U.S. government's official web portal to all federal, state and local government web resources and services.